{"data":{"norad_id":64315,"intl_designator":"2025-123AA","name":"STARLINK-34387","alt_names":[],"object_type":"PAYLOAD","status":"ACTIVE","operator":null,"country":"US","launch_date":"2025-06-08","launch_site_code":"AFWTR","launch_vehicle":null,"mission":null,"orbit_class":"UNKNOWN","rcs_meters":null,"size_class":null,"mass_kg":null,"dimensions":null,"purposes":["comms"],"wikipedia_slug":null,"has_3d_model":false,"image_url":null,"decayed_at":null,"tle_current":{"epoch":"2026-09-20T17:21:02.809152Z","epoch_age_seconds":118421,"freshness":"FRESH","line1":"1 64315U 25123AA  26263.72294918  .00007918  00000+0  27950-3 0  9993","line2":"2 64315  70.0006  60.2770 0004132 271.4020  88.6682 15.29586915 70895","mean_motion":15.29586915,"eccentricity":0.0004132,"inclination_deg":70.0006,"raan_deg":60.277,"arg_perigee_deg":271.402,"mean_anomaly_deg":88.6682,"bstar":0.0002795,"rev_number":7089,"period_min":94.143064763338,"perigee_km":474.21368041111,"apogee_km":479.8788038424,"semimajor_km":6855.1832421268,"source":"CELESTRAK","updated_at":"2026-09-21T09:00:35.310074Z"}}}